[[{"header":{"parameterUnit":"m.s-1","parameterCategory":1,"la1":30.2991,"la2":30.254,"lo1":-89.0895,"lo2":-89.0444,"dy":0.0017,"dx":0.0017,"nx":28,"ny":28,"refTime":"2024-04-15T03:00:00:Z","depth":0,"parameterNumber":2,"parameterNumberName":"U-component_of_WINDS"},"data":[0,0,0,0,0,0,0,0,0,0,0,0,0,0,0,0,0,0,0,0,0,0,0,0,0,0,0,0,0,0,0,0,0,0,0,0,0,0,0,0,0,0,0,0,0,0,0,0,0,0,0,0,0,0,0,0,0,0,-1.2501,-1.25,0,-1.24,-1.2399,-1.2398,-1.2332,-1.2331,-1.2331,-1.2331,-1.2226,-1.2224,-1.2222,0,0,0,0,0,0,0,0,0,0,0,0,0,-1.2636,-1.2634,-1.2501,-1.25,-1.2498,-1.24,-1.2399,-1.2397,-1.2332,-1.2331,-1.2331,-1.233,-1.2227,-1.2224,-1.2221,0,0,0,0,0,0,0,0,0,0,0,0,0,-1.2561,-1.2634,-1.2501,-1.2454,-1.2449,-1.24,-1.2399,-1.2397,-1.2332,-1.2331,-1.2331,-1.233,-1.2228,-1.2225,-1.2221,-1.2211,0,0,-1.221,-1.2209,0,0,0,0,0,0,0,0,-1.2565,-1.2556,-1.2462,-1.2457,-1.2451,-1.2378,-1.2408,-1.2335,-1.2332,-1.2376,-1.2331,-1.233,-1.2277,-1.227,-1.2252,-1.2207,-1.2202,-1.221,-1.2208,-1.2206,-1.2205,0,0,0,0,0,0,0,-1.2571,-1.256,-1.2461,-1.2461,-1.2454,-1.2438,-1.2426,-1.2394,-1.2331,-1.2372,-1.2367,-1.2356,-1.2274,-1.2256,-1.2249,-1.2201,-1.221,-1.2207,-1.2204,-1.2203,-1.2142,-1.2142,0,0,0,0,0,0,-1.2583,-1.2565,-1.2464,-1.2458,-1.2508,-1.2436,-1.2423,-1.2402,-1.2332,-1.232,-1.2357,-1.2354,-1.2262,-1.2253,-1.2245,-1.2229,-1.2206,-1.2203,-1.2201,-1.2141,-1.2142,-1.2142,0,0,0,0,0,0,-1.2586,-1.2575,-1.2468,-1.251,-1.2495,-1.2434,-1.2411,-1.24,-1.2382,-1.232,-1.2308,-1.235,-1.2261,-1.225,-1.222,-1.2224,-1.2201,-1.2198,-1.2141,-1.2141,-1.2142,-1.2197,0,0,0,0,0,0,-1.2591,-1.2577,-1.2572,-1.251,-1.2493,-1.2446,-1.2411,-1.2399,-1.2376,-1.2371,-1.231,-1.2299,-1.226,-1.2226,-1.2217,-1.2219,-1.2195,-1.214,-1.2141,-1.2142,-1.2194,-1.2199,-1.2203,0,0,0,0,0,-1.2596,-1.2592,-1.2573,-1.2561,-1.2487,-1.2446,-1.2436,-1.2391,-1.2376,-1.2372,-1.2332,-1.2301,-1.2226,-1.2223,-1.2212,-1.2214,-1.2139,-1.2141,-1.2142,-1.2192,-1.2198,-1.2203,0,0,0,0,0,0,-1.2656,-1.2583,-1.2561,-1.2537,-1.2498,-1.2435,-1.2427,-1.2399,-1.2363,-1.236,-1.2305,-1.2292,-1.2267,-1.2237,-1.2236,-1.22,-1.2179,-1.2178,-1.2221,-1.2226,-1.2231,-1.2238,-1.2192,0,0,0,0,0,-1.2666,-1.264,-1.2577,-1.2562,-1.2544,-1.2489,-1.247,-1.2438,-1.2396,-1.2379,-1.2337,-1.2297,-1.2264,-1.2243,-1.221,-1.219,-1.2175,-1.2185,-1.219,-1.2194,-1.2193,-1.218,-1.2183,-1.2146,-1.2146,-1.2146,0,0,-1.2688,-1.2644,-1.2631,-1.2573,-1.2539,-1.2512,-1.2476,-1.2449,-1.2428,-1.2375,-1.2344,-1.2312,-1.2263,-1.2239,-1.2225,-1.2213,-1.2201,-1.2195,-1.2199,-1.2196,-1.2182,-1.2185,-1.2188,-1.2147,-1.2147,-1.2147,0,0,-1.2713,-1.2678,-1.2661,-1.2628,-1.2577,-1.2541,-1.2537,-1.2478,-1.2455,-1.2423,-1.2383,-1.2357,-1.2302,-1.2269,-1.2245,-1.2257,-1.2227,-1.2248,-1.2272,-1.2259,-1.2262,-1.2265,-1.2269,-1.2271,-1.2248,-1.2248,-1.2248,0,-1.2745,-1.2703,-1.2656,-1.2631,-1.2607,-1.2557,-1.254,-1.251,-1.2451,-1.2435,-1.2422,-1.2351,-1.2315,-1.2281,-1.2285,-1.2267,-1.226,-1.2254,-1.2266,-1.2268,-1.2269,-1.2272,-1.2274,-1.2251,-1.225,-1.225,-1.225,0,-1.2746,-1.2718,-1.271,-1.2655,-1.2629,-1.2608,-1.2557,-1.2537,-1.2508,-1.2473,-1.2441,-1.2396,-1.2353,-1.2342,-1.2313,-1.2304,-1.2298,-1.2276,-1.2253,-1.2276,-1.2278,-1.2279,-1.2255,-1.2254,-1.2253,-1.2252,0,0,-1.2806,-1.2724,-1.2722,-1.2696,-1.2637,-1.2614,-1.2591,-1.2548,-1.2532,-1.2493,-1.2472,-1.2426,-1.2405,-1.2378,-1.2345,-1.2334,-1.2347,-1.2314,-1.2312,-1.2321,-1.2333,-1.235,-1.2352,-1.2327,-1.2327,-1.2327,-1.2337,0,-1.2822,-1.2777,-1.2734,-1.2705,-1.2678,-1.2631,-1.261,-1.2572,-1.2538,-1.251,-1.2473,-1.2442,-1.2417,-1.24,-1.2388,-1.2348,-1.2348,-1.2347,-1.2306,-1.2305,-1.2319,-1.2353,-1.237,-1.2382,-1.2338,-1.2338,-1.2338,0,-1.2834,-1.2798,-1.2766,-1.2709,-1.2696,-1.2679,-1.2636,-1.261,-1.2565,-1.2541,-1.2511,-1.2476,-1.2449,-1.243,-1.2391,-1.2391,-1.2372,-1.235,-1.2349,-1.2343,-1.2323,-1.2347,-1.2385,-1.2386,-1.2339,-1.2339,-1.2338,0,-1.2881,-1.2823,-1.2797,-1.2776,-1.2709,-1.2698,-1.267,-1.2624,-1.2601,-1.2564,-1.2548,-1.2508,-1.2486,-1.2455,-1.241,-1.2401,-1.2376,-1.2353,-1.2356,-1.2357,-1.2352,-1.2353,-1.2387,-1.2341,-1.2341,-1.2341,-1.2341,0,-1.2902,-1.2885,-1.2817,-1.2801,-1.278,-1.2729,-1.271,-1.2677,-1.2637,-1.2613,-1.257,-1.2549,-1.2491,-1.2463,-1.2427,-1.24,-1.2391,-1.2371,-1.2361,-1.2374,-1.2377,-1.236,-1.2358,-1.2341,-1.2341,-1.2341,-1.2341,0,-1.2951,-1.2904,-1.2872,-1.2812,-1.2796,-1.2783,-1.2731,-1.2713,-1.2677,-1.2648,-1.2638,-1.2582,-1.2547,-1.2499,-1.2448,-1.2424,-1.2402,-1.2388,-1.2417,-1.2412,-1.2416,-1.2416,-1.244,-1.244,-1.2396,-1.2396,-1.2397,0,-1.2968,-1.2953,-1.2891,-1.2872,-1.2845,-1.2815,-1.2791,-1.2741,-1.2718,-1.2666,-1.2654,-1.2615,-1.2581,-1.2527,-1.2481,-1.2442,-1.2426,-1.2437,-1.242,-1.2433,-1.2426,-1.2427,-1.2425,-1.2441,-1.2442,-1.2443,-1.2443,0,-1.3002,-1.298,-1.2948,-1.2907,-1.288,-1.2846,-1.2809,-1.2796,-1.2739,-1.2715,-1.2678,-1.2652,-1.26,-1.2562,-1.2517,-1.2487,-1.2455,-1.2449,-1.2447,-1.246,-1.2478,-1.2468,-1.2428,-1.2449,-1.2448,-1.2448,-1.2447,-1.2447,-1.3035,-1.3019,-1.2973,-1.2938,-1.2906,-1.2873,-1.2853,-1.2815,-1.2783,-1.2738,-1.271,-1.2674,-1.2629,-1.2565,-1.2537,-1.2507,-1.2495,-1.2493,-1.2492,-1.2492,-1.2496,-1.2483,-1.2499,-1.2499,-1.2499,-1.2499,-1.2498,0,-1.3067,-1.3035,-1.3003,-1.2954,-1.2926,-1.2899,-1.2858,-1.2836,-1.2805,-1.2766,-1.2734,-1.2691,-1.2654,-1.2605,-1.2564,-1.255,-1.2535,-1.2541,-1.2541,-1.2535,-1.251,-1.2515,-1.2554,-1.2554,-1.2554,-1.2554,-1.2554,-1.2554,-1.3081,-1.3053,-1.3025,-1.2981,-1.2949,-1.2913,-1.2892,-1.2861,-1.2829,-1.2784,-1.2752,-1.2721,-1.2678,-1.2633,-1.2598,-1.2584,-1.2571,-1.2582,-1.2564,-1.2542,-1.2537,-1.2532,-1.2537,-1.258,-1.258,-1.2591,-1.2592,-1.2592]},{"header":{"parameterUnit":"m.s-1","parameterCategory":1,"la1":30.2991,"la2":30.254,"lo1":-89.0895,"lo2":-89.0444,"dy":0.0017,"dx":0.0017,"nx":28,"ny":28,"refTime":"2024-04-15T03:00:00:Z","depth":0,"parameterNumber":3,"parameterNumberName":"V-component_of_WINDS"},"data":[0,0,0,0,0,0,0,0,0,0,0,0,0,0,0,0,0,0,0,0,0,0,0,0,0,0,0,0,0,0,0,0,0,0,0,0,0,0,0,0,0,0,0,0,0,0,0,0,0,0,0,0,0,0,0,0,0,0,3.3216,3.3215,0,3.3148,3.3147,3.3146,3.3108,3.3108,3.3108,3.3108,3.3031,3.3029,3.3027,0,0,0,0,0,0,0,0,0,0,0,0,0,3.3308,3.3307,3.3216,3.3215,3.3214,3.3148,3.3147,3.3146,3.3108,3.3108,3.3108,3.3108,3.3032,3.3029,3.3027,0,0,0,0,0,0,0,0,0,0,0,0,0,3.3257,3.3306,3.3216,3.3188,3.3184,3.3148,3.3147,3.3145,3.3108,3.3108,3.3108,3.3107,3.3032,3.303,3.3027,3.3011,0,0,3.3018,3.3016,0,0,0,0,0,0,0,0,3.326,3.3253,3.3193,3.3189,3.3186,3.3136,3.3151,3.31,3.3108,3.3137,3.3108,3.3107,3.3066,3.306,3.3047,3.3008,3.3005,3.3018,3.3016,3.3014,3.3014,0,0,0,0,0,0,0,3.3263,3.3256,3.3189,3.3192,3.3188,3.3176,3.3169,3.3141,3.3103,3.3134,3.3131,3.3124,3.3064,3.305,3.3045,3.3003,3.3018,3.3015,3.3013,3.3012,3.2948,3.2948,0,0,0,0,0,0,3.3272,3.3259,3.3191,3.3187,3.3223,3.3175,3.3166,3.3152,3.3103,3.3095,3.3124,3.3123,3.3055,3.3049,3.3042,3.3021,3.3014,3.3012,3.301,3.2948,3.2948,3.2948,0,0,0,0,0,0,3.3275,3.3267,3.3194,3.3222,3.3212,3.3173,3.3158,3.3151,3.3137,3.3095,3.3088,3.3118,3.3055,3.3046,3.302,3.3018,3.301,3.3008,3.2948,3.2948,3.2948,3.2979,0,0,0,0,0,0,3.3277,3.3268,3.3263,3.3223,3.3211,3.3174,3.3158,3.315,3.3133,3.313,3.3087,3.308,3.3054,3.3024,3.3017,3.3014,3.3005,3.2948,3.2948,3.2948,3.2978,3.298,3.2982,0,0,0,0,0,3.3281,3.3273,3.3263,3.3255,3.3204,3.3174,3.3167,3.3139,3.3133,3.3127,3.31,3.3081,3.302,3.3022,3.3013,3.3009,3.2948,3.2948,3.2948,3.2977,3.298,3.2982,0,0,0,0,0,0,3.3311,3.3267,3.3255,3.3235,3.3209,3.3168,3.3159,3.3143,3.3117,3.3115,3.3079,3.307,3.3047,3.3025,3.3029,3.2992,3.2982,3.298,3.3007,3.3009,3.3011,3.3016,3.3003,0,0,0,0,0,3.3316,3.3298,3.3259,3.3244,3.3232,3.3198,3.3184,3.3165,3.3136,3.3124,3.3095,3.3066,3.304,3.3023,3.2997,3.2975,3.2965,3.2968,3.297,3.2972,3.2971,3.2957,3.2958,3.2948,3.2948,3.2948,0,0,3.3325,3.3299,3.3288,3.325,3.3227,3.3207,3.3189,3.3168,3.3152,3.312,3.3094,3.3072,3.3037,3.3013,3.3,3.2994,3.2971,3.2972,3.2974,3.2971,3.2957,3.2958,3.2959,3.2948,3.2948,3.2948,0,0,3.3331,3.3309,3.3295,3.3274,3.3241,3.3219,3.3215,3.3177,3.3162,3.3136,3.3111,3.3091,3.3047,3.3023,3.3005,3.3003,3.2984,3.2995,3.3005,3.2993,3.2993,3.2994,3.2993,3.2993,3.2994,3.2994,3.2994,0,3.3345,3.3316,3.3289,3.327,3.3253,3.3226,3.321,3.319,3.315,3.3138,3.3132,3.3077,3.3051,3.3021,3.3021,3.3007,3.3001,3.2999,3.2996,3.2996,3.2996,3.2994,3.2994,3.2996,3.2996,3.2995,3.2995,0,3.3335,3.3315,3.3307,3.3271,3.3254,3.3236,3.3205,3.319,3.3173,3.3151,3.3124,3.3092,3.306,3.3051,3.3033,3.3018,3.3015,3.3003,3.2992,3.2999,3.2997,3.2996,3.2998,3.2997,3.2997,3.2996,0,0,3.3357,3.3308,3.3306,3.3289,3.3252,3.3235,3.3216,3.3186,3.3173,3.3147,3.3129,3.3093,3.3082,3.3062,3.3041,3.303,3.303,3.3018,3.3017,3.3021,3.3011,3.302,3.302,3.3018,3.3017,3.3017,3.3014,0,3.3357,3.3324,3.33,3.3275,3.3256,3.323,3.3213,3.3188,3.3167,3.3145,3.3121,3.3096,3.3084,3.3071,3.3059,3.3032,3.3027,3.3032,3.2999,3.2998,3.3009,3.3019,3.3028,3.3026,3.3013,3.3013,3.3012,0,3.3353,3.3329,3.3304,3.3269,3.326,3.3246,3.3216,3.3197,3.3167,3.3152,3.3131,3.311,3.3087,3.3078,3.3046,3.305,3.3035,3.302,3.3019,3.3014,3.3005,3.3014,3.3025,3.3025,3.3011,3.3011,3.3011,0,3.3371,3.3333,3.3313,3.33,3.3259,3.3249,3.3231,3.3201,3.3185,3.3159,3.3148,3.3118,3.3102,3.3079,3.305,3.3047,3.302,3.3009,3.3006,3.3006,3.3,3.3001,3.3009,3.2992,3.2992,3.2992,3.2992,0,3.3373,3.3359,3.3321,3.3309,3.3291,3.3262,3.3245,3.3224,3.3198,3.318,3.3155,3.3138,3.3101,3.3079,3.3056,3.3032,3.3025,3.3011,3.3005,3.3013,3.3015,3.3002,3.3001,3.2992,3.2992,3.2992,3.2992,0,3.3391,3.3365,3.3341,3.3305,3.3296,3.3285,3.3253,3.3239,3.3217,3.3194,3.3187,3.3152,3.3125,3.3094,3.3056,3.304,3.3018,3.3009,3.3029,3.3025,3.3023,3.3024,3.3023,3.3021,3.3006,3.3006,3.3006,0,3.3394,3.3382,3.3346,3.3333,3.3316,3.3296,3.328,3.3251,3.3235,3.32,3.319,3.3162,3.3138,3.3095,3.3065,3.3036,3.3026,3.3028,3.3021,3.303,3.3025,3.3026,3.3025,3.3029,3.3029,3.303,3.303,0,3.3402,3.339,3.3369,3.3344,3.3326,3.3304,3.3281,3.3271,3.3237,3.322,3.3194,3.3175,3.3138,3.3109,3.3077,3.3056,3.3037,3.3033,3.303,3.3038,3.305,3.3043,3.3033,3.3032,3.3032,3.3032,3.3032,3.3032,3.3411,3.34,3.3373,3.335,3.3331,3.331,3.3295,3.3273,3.3251,3.3219,3.3203,3.3177,3.3146,3.3101,3.3081,3.3058,3.3052,3.3049,3.3048,3.3047,3.3049,3.3054,3.3052,3.3052,3.3052,3.3052,3.3052,0,3.3417,3.3399,3.3379,3.3349,3.3331,3.3317,3.3291,3.3276,3.3254,3.3229,3.3206,3.3175,3.3148,3.3116,3.3086,3.3075,3.3065,3.3068,3.3068,3.3063,3.3057,3.3062,3.3076,3.3076,3.3076,3.3076,3.3076,3.3076,3.3419,3.3399,3.3384,3.3354,3.3335,3.3311,3.3297,3.3277,3.3257,3.3224,3.3203,3.3183,3.3154,3.3123,3.3096,3.3088,3.3077,3.3083,3.3071,3.3066,3.3064,3.3062,3.3066,3.3081,3.3081,3.3079,3.3079,3.3079]}]]